Location: Aalen
(48.8330°N, 10.1000°E)
Time: 21:17:23
(UTC+02:00)

QB50P2 - Visible Passes

Search period start: 28 March 2023 00:00
Search period end: 07 April 2023 00:00
Orbit: 584 x 598 km, 98.0° (Epoch: 27 March)

Date Brightness Start Highest point End Pass type
(mag) Time Alt. Az. Time Alt. Az. Time Alt. Az.
28 Mar ? 02:48:33 10° NNE 02:49:43 18° NNE 02:49:43 18° NNE visible
28 Mar ? 04:24:39 10° NNW 04:26:17 17° NNW 04:26:17 17° NNW visible
29 Mar ? 02:56:48 10° NNE 02:58:14 20° NNE 02:58:14 20° NNE visible
29 Mar ? 04:33:12 10° NNW 04:34:48 16° NW 04:34:48 16° NW visible
30 Mar ? 03:05:05 10° NNE 03:06:45 23° NNE 03:06:45 23° NNE visible
30 Mar ? 04:41:48 10° NNW 04:43:19 15° NW 04:43:19 15° NW visible
31 Mar ? 03:13:21 10° NNE 03:15:15 26° NNE 03:15:15 26° NNE visible
31 Mar ? 04:50:29 10° NNW 04:51:49 13° NW 04:51:49 13° NW visible
01 Apr ? 03:21:39 10° NNE 03:23:44 29° N 03:23:44 29° N visible
01 Apr ? 04:59:22 10° NW 05:00:18 11° NW 05:00:18 11° NW visible
02 Apr ? 03:29:57 10° N 03:32:13 31° N 03:32:13 31° N visible
03 Apr ? 02:03:52 10° NE 02:04:07 11° NE 02:04:07 11° NE visible
03 Apr ? 03:38:15 10° N 03:40:41 32° N 03:40:41 32° N visible
04 Apr ? 02:11:48 10° NE 02:12:34 13° NE 02:12:34 13° NE visible
04 Apr ? 03:46:33 10° N 03:49:08 33° NNW 03:49:08 33° NNW visible
05 Apr ? 02:19:47 10° NE 02:21:01 16° NE 02:21:01 16° NE visible
05 Apr ? 03:54:53 10° N 03:57:35 31° NNW 03:57:35 31° NNW visible
06 Apr ? 02:27:50 10° NE 02:29:26 19° NE 02:29:26 19° NE visible
06 Apr ? 04:03:12 10° N 04:06:00 29° NW 04:06:00 29° NW visible
